Regional Weather Roundup
Issued by NWS

Home | Current Version | Previous Version | Graphics & Text | Print | Product List | Glossary On
Versions: 1 2 3 4 5 6 7 8 9 10 11 12 13 14 15 16 17 18 19 20 21 22 23 24 25 26 27 28 29 30 31 32 33 34 35 36 37 38 39 40 41 42 43 44 45 46 47 48 49 50
000
ASUS43 KMKX 030600
RWRWI

WISCONSIN REGIONAL WEATHER ROUNDUP
NATIONAL WEATHER SERVICE MILWAUKEE/SULLIVAN WI
100 AM CDT THU SEP 03 2015

NOTE: "FAIR" INDICATES FEW OR NO CLOUDS BELOW 12,000 FEET WITH NO
SIGNIFICANT WEATHER AND/OR OBSTRUCTIONS TO VISIBILITY.

WIZ001-002-006>008-014>016-023>028-030700-
NORTHWEST WISCONSIN

CITY           SKY/WX    TMP DP  RH WIND       PRES   REMARKS
SUPERIOR ARPT  CLOUDY    59  59  98 E6        29.97S
ASHLAND        FOG       62  62 100 CALM      29.97F VSB 1/4
6HR MIN TEMP:  60; 6HR MAX TEMP:  69;

HAYWARD        MOCLDY    63  62  97 N6        29.97S FOG
6HR MIN TEMP:  62; 6HR MAX TEMP:  71;

SIREN          FAIR      63  62  97 CALM      29.95S
CUMBERLAND     CLOUDY    64  63  94 CALM      29.96S
RICE LAKE      CLOUDY    65  64  96 CALM      29.97R FOG
CHETEK         MOCLDY   N/A N/A N/A CALM      29.95S FOG
LADYSMITH      CLOUDY    68  65  93 NE3       29.97F
6HR MIN TEMP:  68; 6HR MAX TEMP:  70;

EAU CLAIRE     CLOUDY    69  67  93 NE3       29.92S
6HR MIN TEMP:  68; 6HR MAX TEMP:  71;

MENOMONIE      FAIR      67  67  97 N5        29.93S FOG
6HR MIN TEMP:  67; 6HR MAX TEMP:  73;

NEW RICHMOND   MOCLDY    67  66  97 E3        29.94S
OSCEOLA        CLOUDY    67  67 100 E3        29.96S
$$

WIZ003>005-009-010-017-018-030700-
NORTH CENTRAL WISCONSIN

CITY           SKY/WX    TMP DP  RH WIND       PRES   REMARKS
MANITOWISH WTR FOG       62  62 100 CALM      29.98F VSB 1/2
ARBOR VITAE    FAIR      64  63  95 CALM      29.98S
WOODRUFF       FAIR      64  63  95 CALM      29.98S
RHINELANDER    CLOUDY    65  63  93 E5        29.98S
6HR MIN TEMP:  65; 6HR MAX TEMP:  70; 6HR PCP: TRACE;

EAGLE RIVER    CLOUDY    65  65 100 NE6       29.97F
LAND O LAKES   CLOUDY    65  64  99 CALM      30.00S
PHILLIPS       CLOUDY    63  63 100 CALM      29.97F
6HR MIN TEMP:  62; 6HR MAX TEMP:  68;

TOMAHAWK       FAIR      64  63  95 CALM      29.97S
MEDFORD        CLOUDY    66  66 100 CALM      29.95F
MERRILL        CLOUDY    68  68 100 N3        29.96S
$$

WIZ029-030-035-036-043>047-030700-
CENTRAL WISCONSIN

CITY           SKY/WX    TMP DP  RH WIND       PRES   REMARKS
WAUSAU         LGT RAIN  68  67  96 CALM      29.93S
6HR MIN TEMP:  68; 6HR MAX TEMP:  71; 6HR PCP:  0.48;

MOSINEE        RAIN      66  66 100 NE3       29.95S
MARSHFIELD     LGT RAIN  71  66  84 CALM      29.93F
6HR MIN TEMP:  69; 6HR MAX TEMP:  74; 6HR PCP: TRACE;

STEVENS POINT  CLOUDY    67  67 100 CALM      29.93S FOG
WAUPACA        FAIR      73  71  96 SW3       29.90F
WAUTOMA        NOT AVBL
WISC RAPIDS    CLOUDY    73  69  87 SW3       29.92F
6HR MIN TEMP:  72; 6HR MAX TEMP:  81; 6HR PCP:  0.08;

CAMP DOUGLAS   NOT AVBL
$$

WIZ011>013-019>022-031-037>040-048>050-030700-
NORTHEAST WISCONSIN

CITY           SKY/WX    TMP DP  RH WIND       PRES   REMARKS
ANTIGO         CLOUDY    66  65  99 NE5       29.96R
SHAWANO        NOT AVBL
OCONTO         CLOUDY    66  66 100 N5        29.92R
STURGEON BAY   CLOUDY    66  63  88 CALM      29.95S
6HR MIN TEMP:  64; 6HR MAX TEMP:  70;

GREEN BAY      FAIR      70  68  93 CALM      29.90S FOG
6HR MIN TEMP:  70; 6HR MAX TEMP:  74; 6HR PCP:  0.05;

MANITOWOC      NOT AVBL
APPLETON       MOCLDY    72  68  88 S8        29.89F
CLINTONVILLE   CLOUDY    68  66  94 N5        29.92R
OSHKOSH        FAIR      72  68  87 S8        29.90F
6HR MIN TEMP:  72; 6HR MAX TEMP:  78;

$$

WIZ032>034-041-042-053>061-030700-
SOUTHWEST WISCONSIN

CITY           SKY/WX    TMP DP  RH WIND       PRES   REMARKS
LA CROSSE      FAIR      75  70  84 SE5       29.90F
6HR MIN TEMP:  75; 6HR MAX TEMP:  81; 6HR PCP: TRACE;

SPARTA         FAIR      69  66  90 CALM      29.93S
VIROQUA          N/A     71  70  95 SW7       29.95S
BOSCOBEL       MOCLDY    76  70  82 SW6       29.93F
6HR MIN TEMP:  76; 6HR MAX TEMP:  82;

PRAIRIE DU CHI CLOUDY    72  67  84 CALM      29.93S
PLATTEVILLE    CLOUDY    72  70  93 S5        29.97S
$$

WIZ056-057-062-063-064-067-068-030700-
SOUTH CENTRAL WISCONSIN

CITY           SKY/WX    TMP DP  RH WIND       PRES   REMARKS
REEDSBURG      FAIR      74  69  85 SW6       29.93F
BARABOO/DELLS  FAIR      74  67  78 SW10      29.93F
LONE ROCK      NOT AVBL
MINERAL POINT  FAIR      77  70  78 SW6       29.97S
MADISON        FAIR      75  69  81 SW3       29.93F
6HR MIN TEMP:  75; 6HR MAX TEMP:  82;

MIDDLETON      MOCLDY    76  69  78 SW7       29.95S
WATERTOWN      FAIR      73  73 100 S5        29.93F
MONROE         CLOUDY    73  70  88 SW8       29.96F
JANESVILLE     FAIR      73  70  88 SW3       29.95S
$$

WIZ051-052-058>065-066-070>072-030700-
SOUTHEAST WISCONSIN

CITY           SKY/WX    TMP DP  RH WIND       PRES   REMARKS
MILWAUKEE      FAIR      77  70  79 S9        29.94F
6HR MIN TEMP:  75; 6HR MAX TEMP:  85; 6HR PCP: TRACE;

WAUKESHA       MOCLDY    72  68  88 S5        29.96S
MILWAUKEE/TIMM CLOUDY    75  68  78 S5        29.95S
RACINE         FAIR      74  67  78 S6        29.96F
6HR MIN TEMP:  74; 6HR MAX TEMP:  83; 6HR PCP: TRACE;

BURLINGTON     FAIR      70  68  96 SW3       29.95F
KENOSHA        FAIR      75  69  81 S5        29.96S
6HR MIN TEMP:  75; 6HR MAX TEMP:  83; 6HR PCP: TRACE;

FOND DU LAC    FAIR      74  68  81 SW7       29.91F
6HR MIN TEMP:  72; 6HR MAX TEMP:  80;

SHEBOYGAN      CLOUDY    74  69  85 S8        29.92F
6HR MIN TEMP:  69; 6HR MAX TEMP:  79;

WEST BEND      FAIR      70  66  88 CALM      29.94S
JUNEAU         FAIR      71  68  89 S6        29.95S
$$

LSZ147-162-030700-
LAKE SUPERIOR

STATION/POSITION TIME  TEMP    WIND        PRES    WAVE
                       AIR SEA DIR/SP/G            HT/PER
                 (UTC) (F)     (DEG/KT/KT) (MB)    (FT/S)
W MID LAKE BUOY  0450   58 56   80/  6/  6 1014.8S   0
DEVILS ISLAND    0500   59      10/  5/  5 1015.2S
PORT WING        0500   59      30/  5/  6 1015.2R
SAXON HARBOR     0500   61        CALM     1014.2F
$$

LMZ867-665-643>646-030700-
LAKE MICHIGAN

STATION/POSITION TIME  TEMP    WIND        PRES    WAVE
                       AIR SEA DIR/SP/G            HT/PER
                 (UTC) (F)     (DEG/KT/KT) (MB)    (FT/S)
CHAMBERS ISLAND  0500   65      80/  2/  3 1013.9F
S GREEN BAY BUOY 0500   67 66  310/  6/  6 1014.5F
N MID LAKE BUOY  0450   67 66  130/  4/  6 1013.3F   1
NORTHPORT PIER   0500   69     300/  3/ 20 1014.6R
SISTER BAY       0541   69     120/  8/ 11   N/A
ALGOMA LAKESHORE 0514          220/  6/  8   N/A
KEWAUNEE LAKESHO 0500   58     190/  1/  3 1012.2F
SHEBOYGAN LAKESH 0500   69     200/  9/ 10 1013.3F
PORT WASHINGTON  0500   64     190/  5/  8 1014.2
ATWATER BUOY     0500   60     170/  6/  8 1015.3F
MILWAUKEE LAKESH 0540   65     170/  3/  4   N/A
S MID LAKE BUOY  0450   74 71  180/  8/ 10 1013.8F
KENOSHA   LAKESH 0500   66     170/ 10/ 11 1014.2S
$$

TC  - TEMPERATURE IN CELSIUS
VSB - VISIBILITY IN STATUTE MILES
WCI - WIND CHILL INDEX
HX  - HEAT INDEX



USA.gov is the U.S. government's official web portal to all federal, state and local government web resources and services.